GW1804 Weather Reports


time (UTC)temp
C
wind
direction
speed
KPH
gust
KPH
rain 1hr
cm
rain 24hr
cm
rain mn
cm
humidity
%
barometer
mb
20260903200535 23 283 6.4 17.7 0.00 0.00 0.00 75 1013.5
20260903200107 23 285 8.0 17.7 0.00 0.00 0.00 76 1013.6
20260903195534 23 237 6.4 16.1 0.00 0.00 0.00 76 1013.6
20260903195055 23 250 6.4 16.1 0.00 0.00 0.00 76 1013.6
20260903194555 23 227 6.4 14.5 0.00 0.00 0.00 77 1013.6
20260903194036 23 278 8.0 16.1 0.00 0.00 0.00 77 1013.7
20260903193534 23 270 8.0 16.1 0.00 0.00 0.00 78 1013.8
20260903193105 23 277 8.0 16.1 0.00 0.00 0.00 78 1013.8
20260903192535 23 240 6.4 16.1 0.00 0.00 0.00 77 1013.9
20260903192035 23 279 6.4 16.1 0.00 0.00 0.00 77 1013.9
20260903191603 23 242 6.4 16.1 0.00 0.00 0.00 78 1013.9
20260903191032 23 161 6.4 16.1 0.00 0.00 0.00 78 1014.0
20260903190535 23 267 6.4 16.1 0.00 0.00 0.00 77 1014.0
20260903190103 22 207 8.0 16.1 0.00 0.00 0.00 76 1014.1
20260903185534 23 267 8.0 16.1 0.00 0.00 0.00 77 1014.2
20260903185036 23 268 8.0 16.1 0.00 0.00 0.00 76 1014.3
20260903184554 23 223 8.0 17.7 0.00 0.00 0.00 76 1014.4
20260903184033 22 315 6.4 19.3 0.00 0.00 0.00 76 1014.5
20260903183536 22 221 8.0 19.3 0.00 0.00 0.00 76 1014.6
20260903183121 23 274 8.0 17.7 0.00 0.00 0.00 75 1014.6
20260903182532 23 292 6.4 16.1 0.00 0.00 0.00 75 1014.6
20260903182032 22 257 8.0 14.5 0.00 0.00 0.00 75 1014.6
20260903181616 22 278 8.0 16.1 0.00 0.00 0.00 74 1014.6
20260903181038 22 244 4.8 16.1 0.00 0.00 0.00 75 1014.6
20260903180532 22 256 8.0 16.1 0.00 0.00 0.00 74 1014.6
20260903180105 22 234 4.8 17.7 0.00 0.00 0.00 74 1014.6
20260903175532 22 246 6.4 17.7 0.00 0.00 0.00 75 1014.6
20260903175039 22 225 8.0 17.7 0.00 0.00 0.00 75 1014.6
20260903174604 22 213 4.8 14.5 0.00 0.00 0.00 75 1014.7
20260903174034 22 245 4.8 14.5 0.00 0.00 0.00 77 1014.6
20260903173536 22 207 6.4 14.5 0.00 0.00 0.00 77 1014.6
20260903173110 22 226 4.8 11.3 0.00 0.00 0.00 77 1014.6
20260903172532 22 284 3.2 11.3 0.00 0.00 0.00 77 1014.5
20260903172031 22 290 4.8 11.3 0.00 0.00 0.00 77 1014.5
20260903171602 22 219 3.2 9.7 0.00 0.00 0.00 77 1014.5
20260903171032 21 233 3.2 9.7 0.00 0.00 0.00 78 1014.5
20260903170533 21 218 0.0 6.4 0.00 0.00 0.00 77 1014.5
20260903170100 21 234 1.6 8.0 0.00 0.00 0.00 79 1014.5
20260903165532 20 201 1.6 8.0 0.00 0.00 0.00 80 1014.6
20260903165040 20 241 1.6 6.4 0.00 0.00 0.00 81 1014.5
20260903164602 20 236 0.0 4.8 0.00 0.00 0.00 82 1014.6
20260903164036 20 0 0.0 4.8 0.00 0.00 0.00 83 1014.6
20260903163533 20 0 1.6 8.0 0.00 0.00 0.00 83 1014.6
20260903163102 20 0 1.6 8.0 0.00 0.00 0.00 84 1014.6
20260903162535 19 0 1.6 4.8 0.00 0.00 0.00 85 1014.7
20260903162032 19 0 0.0 4.8 0.00 0.00 0.00 85 1014.6
20260903161614 19 219 0.0 4.8 0.00 0.00 0.00 86 1014.6
20260903161039 18 204 0.0 3.2 0.00 0.00 0.00 86 1014.6
20260903160533 18 0 0.0 4.8 0.00 0.00 0.00 87 1014.6
20260903155536 18 227 1.6 4.8 0.00 0.00 0.00 87 1014.7
20260903155032 18 0 0.0 3.2 0.00 0.00 0.00 87 1014.7
20260903154602 18 0 0.0 3.2 0.00 0.00 0.00 88 1014.8
20260903154037 18 0 0.0 1.6 0.00 0.00 0.00 88 1014.8
20260903153535 17 0 0.0 1.6 0.00 0.00 0.00 88 1014.9
20260903153100 17 0 0.0 1.6 0.00 0.00 0.00 88 1014.8
20260903152535 17 0 0.0 1.6 0.00 0.00 0.00 88 1014.8
20260903152036 17 0 0.0 1.6 0.00 0.00 0.00 88 1014.7
20260903151604 17 0 0.0 1.6 0.00 0.00 0.00 89 1014.8
20260903151036 17 0 0.0 1.6 0.00 0.00 0.00 89 1014.8
20260903150535 17 0 0.0 1.6 0.00 0.00 0.00 89 1014.7
20260903150054 17 0 0.0 1.6 0.00 0.00 0.00 89 1014.7
20260903145531 17 0 0.0 1.6 0.00 0.00 0.00 89 1014.8
20260903145031 17 0 0.0 1.6 0.00 0.00 0.00 89 1014.7
20260903144559 17 0 0.0 1.6 0.00 0.00 0.00 89 1014.7
20260903144036 16 0 0.0 1.6 0.00 0.00 0.00 89 1014.7
20260903143532 16 0 0.0 1.6 0.00 0.00 0.00 89 1014.7
20260903143101 16 0 0.0 1.6 0.00 0.00 0.00 89 1014.6
20260903142539 16 0 0.0 1.6 0.00 0.00 0.00 89 1014.5
20260903142035 16 0 0.0 1.6 0.00 0.00 0.00 89 1014.5
20260903141600 16 0 0.0 1.6 0.00 0.00 0.00 89 1014.5
20260903141037 16 0 0.0 1.6 0.00 0.00 0.00 89 1014.4
20260903140533 16 0 0.0 1.6 0.00 0.00 0.00 89 1014.5
20260903140109 16 0 0.0 1.6 0.00 0.00 0.00 89 1014.3
20260903135535 16 155 0.0 1.6 0.00 0.00 0.00 89 1014.2
20260903135035 16 0 0.0 1.6 0.00 0.00 0.00 89 1014.2
20260903134605 16 0 0.0 0.0 0.00 0.00 0.00 89 1014.1
20260903134031 16 0 0.0 1.6 0.00 0.00 0.00 89 1014.1
20260903133532 16 0 0.0 1.6 0.00 0.00 0.00 89 1014.1
20260903133103 16 0 0.0 1.6 0.00 0.00 0.00 88 1014.1
20260903132533 16 0 0.0 1.6 0.00 0.00 0.00 88 1014.0
20260903132032 16 0 0.0 1.6 0.00 0.00 0.00 88 1014.0
20260903131601 16 0 0.0 1.6 0.00 0.00 0.00 88 1013.9
20260903131033 16 0 0.0 1.6 0.00 0.00 0.00 88 1014.0
20260903130536 16 0 0.0 1.6 0.00 0.00 0.00 88 1014.0
20260903125532 16 0 0.0 1.6 0.00 0.00 0.00 88 1014.0
20260903125032 16 0 0.0 1.6 0.00 0.00 0.00 88 1014.0
20260903124605 16 0 0.0 1.6 0.00 0.00 0.00 88 1014.0
20260903124031 16 0 0.0 1.6 0.00 0.00 0.00 88 1014.0
20260903123531 16 0 0.0 1.6 0.00 0.00 0.00 88 1014.0
20260903123103 16 0 0.0 1.6 0.00 0.00 0.00 88 1013.8
20260903122535 16 0 0.0 1.6 0.00 0.00 0.00 88 1013.8
20260903122032 16 0 0.0 1.6 0.00 0.00 0.00 88 1013.8
20260903121601 16 0 0.0 1.6 0.00 0.00 0.00 88 1013.8
20260903121038 16 0 0.0 1.6 0.00 0.00 0.00 88 1013.8
20260903120535 16 0 0.0 1.6 0.00 0.00 0.00 88 1013.8
20260903120052 16 0 0.0 1.6 0.00 0.00 0.00 88 1013.8
20260903115532 16 0 0.0 1.6 0.00 0.00 0.00 88 1013.9
20260903115031 16 0 0.0 1.6 0.00 0.00 0.00 88 1013.9
20260903114553 16 0 0.0 1.6 0.00 0.00 0.00 88 1014.0
20260903114035 16 0 0.0 1.6 0.00 0.00 0.00 88 1014.0
20260903113531 16 0 0.0 0.0 0.00 0.00 0.00 88 1013.9
20260903113100 16 0 0.0 0.0 0.00 0.00 0.00 88 1014.0
20260903112535 16 0 0.0 0.0 0.00 0.00 0.00 88 1013.9
20260903112034 16 0 0.0 0.0 0.00 0.00 0.00 88 1013.9
20260903111557 17 0 0.0 0.0 0.00 0.00 0.00 88 1014.0
20260903111032 17 0 0.0 0.0 0.00 0.00 0.00 88 1013.9
20260903110535 17 0 0.0 0.0 0.00 0.00 0.00 88 1014.0
20260903110053 17 0 0.0 0.0 0.00 0.00 0.00 88 1014.0
20260903105532 17 0 0.0 0.0 0.00 0.00 0.00 88 1014.0
20260903105032 17 0 0.0 0.0 0.00 0.00 0.00 88 1014.0
20260903104551 17 0 0.0 0.0 0.00 0.00 0.00 87 1014.1
20260903104035 17 0 0.0 0.0 0.00 0.00 0.00 87 1014.1
20260903103531 17 0 0.0 0.0 0.00 0.00 0.00 87 1014.1
20260903103101 17 0 0.0 0.0 0.00 0.00 0.00 87 1014.1
20260903102530 17 0 0.0 0.0 0.00 0.00 0.00 88 1014.2
20260903102032 17 0 0.0 0.0 0.00 0.00 0.00 87 1014.2
20260903101558 17 0 0.0 0.0 0.00 0.00 0.00 87 1014.3
20260903101032 17 0 0.0 0.0 0.00 0.00 0.00 87 1014.3
20260903100532 17 0 0.0 1.6 0.00 0.00 0.00 87 1014.4
20260903100054 17 0 0.0 1.6 0.00 0.00 0.00 87 1014.4
20260903095535 17 0 0.0 1.6 0.00 0.00 0.00 87 1014.5
20260903095034 17 0 0.0 1.6 0.00 0.00 0.00 87 1014.5
20260903094604 17 0 0.0 1.6 0.00 0.00 0.00 87 1014.5
20260903094033 17 0 0.0 1.6 0.00 0.00 0.00 87 1014.6
20260903093536 17 0 0.0 1.6 0.00 0.00 0.00 87 1014.6
20260903093100 17 0 0.0 1.6 0.00 0.00 0.00 87 1014.7
20260903092532 17 0 0.0 0.0 0.00 0.00 0.00 87 1014.7
20260903092033 17 0 0.0 0.0 0.00 0.00 0.00 87 1014.7
20260903091600 17 0 0.0 1.6 0.00 0.00 0.00 87 1014.8
20260903091036 17 0 0.0 1.6 0.00 0.00 0.00 87 1014.7
20260903090535 17 0 0.0 1.6 0.00 0.00 0.00 87 1014.7
20260903090054 17 0 0.0 1.6 0.00 0.00 0.00 87 1014.7
20260903085531 17 0 0.0 1.6 0.00 0.00 0.00 87 1014.8
20260903085032 17 0 0.0 1.6 0.00 0.00 0.00 87 1014.9
20260903084554 17 0 0.0 1.6 0.00 0.00 0.00 87 1014.9
20260903084031 17 0 0.0 0.0 0.00 0.00 0.00 86 1014.9
20260903083532 17 0 0.0 0.0 0.00 0.00 0.00 87 1014.9
20260903083057 17 0 0.0 1.6 0.00 0.00 0.00 86 1015.0
20260903082535 17 0 0.0 1.6 0.00 0.00 0.00 86 1015.0
20260903082031 17 0 0.0 1.6 0.00 0.00 0.00 86 1015.1
20260903081556 17 0 0.0 1.6 0.00 0.00 0.00 86 1015.1
20260903081034 17 0 0.0 0.0 0.00 0.00 0.00 86 1015.1
20260903080535 17 0 0.0 0.0 0.00 0.00 0.00 86 1015.1
20260903080100 17 0 0.0 0.0 0.00 0.00 0.00 86 1015.1
20260903075532 17 0 0.0 1.6 0.00 0.00 0.00 86 1015.1
20260903075034 17 0 0.0 1.6 0.00 0.00 0.00 86 1015.2
20260903074603 18 0 0.0 1.6 0.00 0.00 0.00 86 1015.2
20260903074031 18 0 0.0 0.0 0.00 0.00 0.00 86 1015.2
20260903073536 18 0 0.0 0.0 0.00 0.00 0.00 86 1015.2
20260903073110 18 0 0.0 0.0 0.00 0.00 0.00 85 1015.1
20260903072535 18 0 0.0 0.0 0.00 0.00 0.00 85 1015.2
20260903072031 18 0 0.0 0.0 0.00 0.00 0.00 85 1015.1
20260903071559 18 0 0.0 0.0 0.00 0.00 0.00 85 1015.2
20260903071032 18 0 0.0 0.0 0.00 0.00 0.00 85 1015.2
20260903070536 18 0 0.0 1.6 0.00 0.00 0.00 85 1015.2
20260903070058 18 0 0.0 1.6 0.00 0.00 0.00 85 1015.2
20260903065532 18 0 0.0 0.0 0.00 0.00 0.00 85 1015.2
20260903065031 18 0 0.0 0.0 0.00 0.00 0.00 85 1015.1
20260903064603 18 0 0.0 1.6 0.00 0.00 0.00 84 1015.2
20260903064031 18 0 0.0 1.6 0.00 0.00 0.00 84 1015.1
20260903063532 18 0 0.0 1.6 0.00 0.00 0.00 84 1015.1
20260903063125 18 0 0.0 1.6 0.00 0.00 0.00 84 1015.2
20260903062535 18 0 0.0 1.6 0.00 0.00 0.00 84 1015.2
20260903062034 18 0 0.0 0.0 0.00 0.00 0.00 84 1015.2
20260903061556 18 0 0.0 0.0 0.00 0.00 0.00 84 1015.2
20260903061031 18 0 0.0 0.0 0.00 0.00 0.00 84 1015.2
20260903060533 18 0 0.0 1.6 0.00 0.00 0.00 84 1015.2
20260903060104 18 0 0.0 1.6 0.00 0.00 0.00 84 1015.3
20260903055533 18 0 0.0 0.0 0.00 0.00 0.00 83 1015.3
20260903055032 19 0 0.0 1.6 0.00 0.00 0.00 83 1015.3
20260903054602 19 0 0.0 1.6 0.00 0.00 0.00 83 1015.3
20260903054034 19 0 0.0 1.6 0.00 0.00 0.00 83 1015.3
20260903053536 19 0 0.0 1.6 0.00 0.00 0.00 82 1015.4
20260903053059 19 0 0.0 1.6 0.00 0.00 0.00 82 1015.4
20260903052532 19 0 0.0 1.6 0.00 0.00 0.00 82 1015.4
20260903052032 19 0 0.0 1.6 0.00 0.00 0.00 82 1015.4
20260903051555 19 0 0.0 0.0 0.00 0.00 0.00 82 1015.4
20260903051032 19 0 0.0 0.0 0.00 0.00 0.00 82 1015.5
20260903050534 19 0 0.0 0.0 0.00 0.00 0.00 81 1015.5
20260903050055 19 0 0.0 0.0 0.00 0.00 0.00 81 1015.5
20260903045532 20 0 0.0 0.0 0.00 0.00 0.00 81 1015.5
20260903045032 20 0 0.0 0.0 0.00 0.00 0.00 81 1015.4
20260903044550 20 0 0.0 0.0 0.00 0.00 0.00 81 1015.4
20260903044032 20 0 0.0 0.0 0.00 0.00 0.00 81 1015.4
20260903043532 20 0 0.0 0.0 0.00 0.00 0.00 81 1015.4
20260903043111 20 0 0.0 0.0 0.00 0.00 0.00 81 1015.4
20260903042536 20 0 0.0 0.0 0.00 0.00 0.00 81 1015.4
20260903042036 20 0 0.0 0.0 0.00 0.00 0.00 81 1015.4
20260903041556 20 0 0.0 0.0 0.00 0.00 0.00 81 1015.3
20260903041035 20 0 0.0 0.0 0.00 0.00 0.00 81 1015.3
20260903040536 20 0 0.0 0.0 0.00 0.00 0.00 81 1015.3
20260903040110 20 0 0.0 0.0 0.00 0.00 0.00 81 1015.2
20260903035536 20 0 0.0 0.0 0.00 0.00 0.00 81 1015.1
20260903035036 20 0 0.0 0.0 0.00 0.00 0.00 81 1015.0
20260903034600 20 0 0.0 0.0 0.00 0.00 0.00 80 1015.0
20260903034036 20 0 0.0 0.0 0.00 0.00 0.00 80 1014.9
20260903033536 20 0 0.0 0.0 0.00 0.00 0.00 81 1014.9
20260903033100 20 0 0.0 0.0 0.00 0.00 0.00 80 1015.0
20260903032536 20 0 0.0 0.0 0.00 0.00 0.00 80 1014.8
20260903032037 20 0 0.0 0.0 0.00 0.00 0.00 80 1014.8
20260903031602 20 0 0.0 0.0 0.00 0.00 0.00 80 1014.6
20260903031035 20 0 0.0 0.0 0.00 0.00 0.00 80 1014.5
20260903030538 20 0 0.0 0.0 0.00 0.00 0.00 80 1014.4
20260903030110 20 0 0.0 0.0 0.00 0.00 0.00 80 1014.4
20260903025537 21 0 0.0 0.0 0.00 0.00 0.00 79 1014.4
20260903025036 21 0 0.0 0.0 0.00 0.00 0.00 79 1014.4
20260903024557 21 0 0.0 1.6 0.00 0.00 0.00 80 1014.4
20260903024035 21 0 0.0 1.6 0.00 0.00 0.00 79 1014.4
20260903023536 21 0 0.0 3.2 0.00 0.00 0.00 79 1014.4
20260903023107 21 0 0.0 3.2 0.00 0.00 0.00 79 1014.4
20260903022536 21 227 0.0 4.8 0.00 0.00 0.00 79 1014.4
20260903022038 21 227 0.0 6.4 0.00 0.00 0.00 78 1014.5
20260903021603 21 284 1.6 6.4 0.00 0.00 0.00 78 1014.5
20260903021036 21 300 0.0 4.8 0.00 0.00 0.00 77 1014.5
20260903020535 21 0 1.6 4.8 0.00 0.00 0.00 77 1014.5
20260903015532 21 284 1.6 6.4 0.00 0.00 0.00 76 1014.5
20260903015033 22 298 3.2 11.3 0.00 0.00 0.00 75 1014.6
20260903014600 22 262 1.6 11.3 0.00 0.00 0.00 75 1014.5
20260903014040 22 246 4.8 11.3 0.00 0.00 0.00 75 1014.5
20260903013538 22 0 3.2 11.3 0.00 0.00 0.00 75 1014.4
20260903013105 22 242 4.8 11.3 0.00 0.00 0.00 75 1014.5
20260903012539 22 292 3.2 9.7 0.00 0.00 0.00 74 1014.5
20260903012033 22 221 3.2 11.3 0.00 0.00 0.00 74 1014.5
20260903011610 22 273 4.8 12.9 0.00 0.00 0.00 73 1014.4
20260903011031 22 260 4.8 14.5 0.00 0.00 0.00 73 1014.3
20260903010531 22 259 4.8 14.5 0.00 0.00 0.00 73 1014.4
20260903005530 23 279 4.8 12.9 0.00 0.00 0.00 72 1014.4
20260903005032 23 285 3.2 12.9 0.00 0.00 0.00 71 1014.3
20260903004602 23 299 4.8 12.9 0.00 0.00 0.00 71 1014.3
20260903004032 23 248 6.4 11.3 0.00 0.00 0.00 71 1014.3
20260903003532 23 261 3.2 11.3 0.00 0.00 0.00 71 1014.3
20260903003057 23 226 4.8 12.9 0.00 0.00 0.00 70 1014.3
20260903002532 23 269 4.8 12.9 0.00 0.00 0.00 69 1014.3
20260903002032 23 292 4.8 12.9 0.00 0.00 0.00 68 1014.3
20260903001551 23 288 6.4 12.9 0.00 0.00 0.00 69 1014.4
20260903001031 23 290 4.8 12.9 0.00 0.00 0.00 69 1014.3
20260903000531 23 281 4.8 12.9 0.00 0.00 0.00 68 1014.4
20260902235532 23 290 4.8 14.5 0.00 0.00 0.00 71 1014.5
20260902235031 23 227 4.8 14.5 0.00 0.00 0.00 71 1014.5
20260902234551 23 288 4.8 14.5 0.00 0.00 0.00 70 1014.5
20260902234034 23 243 4.8 14.5 0.00 0.00 0.00 71 1014.5
20260902233531 23 238 4.8 17.7 0.00 0.00 0.00 70 1014.6
20260902233103 23 291 4.8 17.7 0.00 0.00 0.00 71 1014.7
20260902232532 23 273 6.4 16.1 0.00 0.00 0.00 71 1014.6
20260902232033 23 293 4.8 16.1 0.00 0.00 0.00 71 1014.6
20260902231558 23 272 8.0 16.1 0.00 0.00 0.00 71 1014.7
20260902231032 23 244 4.8 16.1 0.00 0.00 0.00 71 1014.6
20260902230535 24 215 6.4 16.1 0.00 0.00 0.00 71 1014.6
20260902230107 24 263 8.0 16.1 0.00 0.00 0.00 71 1014.8
20260902225531 24 259 4.8 14.5 0.00 0.00 0.00 70 1014.8
20260902225032 24 290 6.4 14.5 0.00 0.00 0.00 71 1014.9
20260902224603 24 277 8.0 14.5 0.00 0.00 0.00 70 1014.9
20260902224031 24 270 6.4 14.5 0.00 0.00 0.00 69 1015.0
20260902223531 24 221 6.4 12.9 0.00 0.00 0.00 70 1015.0
20260902223116 24 286 4.8 11.3 0.00 0.00 0.00 69 1015.0
20260902222530 24 283 6.4 16.1 0.00 0.00 0.00 70 1015.1
20260902222034 24 243 6.4 16.1 0.00 0.00 0.00 70 1015.1
20260902221555 24 304 4.8 19.3 0.00 0.00 0.00 70 1015.1
20260902221034 24 262 8.0 19.3 0.00 0.00 0.00 70 1015.2
20260902220532 24 279 6.4 16.1 0.00 0.00 0.00 69 1015.2
20260902220054 24 248 6.4 14.5 0.00 0.00 0.00 70 1015.2
20260902215534 24 287 6.4 14.5 0.00 0.00 0.00 68 1015.2
20260902215032 24 283 6.4 14.5 0.00 0.00 0.00 69 1015.2
20260902214555 24 268 6.4 14.5 0.00 0.00 0.00 69 1015.2
20260902214032 24 269 4.8 14.5 0.00 0.00 0.00 70 1015.2
20260902213532 24 290 4.8 16.1 0.00 0.00 0.00 70 1015.3
20260902213055 24 296 8.0 16.1 0.00 0.00 0.00 70 1015.3
20260902212533 24 306 8.0 14.5 0.00 0.00 0.00 70 1015.4
20260902212033 23 308 6.4 16.1 0.00 0.00 0.00 71 1015.5
20260902211556 23 207 8.0 16.1 0.00 0.00 0.00 72 1015.5
20260902211031 23 249 4.8 16.1 0.00 0.00 0.00 72 1015.5
20260902210532 23 259 8.0 16.1 0.00 0.00 0.00 71 1015.5
20260902210052 23 247 8.0 16.1 0.00 0.00 0.00 72 1015.5
20260902205531 23 299 8.0 19.3 0.00 0.00 0.00 72 1015.4
20260902205034 23 251 6.4 19.3 0.00 0.00 0.00 72 1015.5
20260902204630 23 283 6.4 14.5 0.00 0.00 0.00 73 1015.5
20260902204034 23 289 8.0 16.1 0.00 0.00 0.00 72 1015.5
20260902203534 23 296 6.4 16.1 0.00 0.00 0.00 73 1015.5
20260902203056 23 296 8.0 16.1 0.00 0.00 0.00 73 1015.5
20260902202533 23 303 6.4 14.5 0.00 0.00 0.00 73 1015.6
20260902202034 23 284 8.0 14.5 0.00 0.00 0.00 73 1015.6
20260902201558 23 273 8.0 14.5 0.00 0.00 0.00 74 1015.7
20260902201031 23 259 6.4 16.1 0.00 0.00 0.00 74 1015.7